User: anonymous   Login
Location: South Tamworth Observatory
(43.8246°N, 71.3026°W)
Time: 16:44:20
(UTC-04:00)
Language:

Cosmos 2208 Rocket - Orbit

View from above orbital plane
View from above orbital plane
View from above satellite
View from above satellite

Ground track
Ground track

The orbit data is extracted from the following two-line orbital elements,

1 22081U 92053B   16270.17441827  .00000022  00000-0  17212-4 0  9993
2 22081  74.0452 199.8466 0037003 234.8198 124.9486 14.33341210261014
Epoch (UTC): 26 September 2016 04:11:09
Eccentricity: 0.0037003
inclination: 74.0452°
perigee height: 754 km
apogee height: 807 km
right ascension of ascending node: 199.8466°
argument of perigee: 234.8198°
revolutions per day: 14.33341210
mean anomaly at epoch: 124.9486°
orbit number at epoch: 26101

The dashed part of the orbit path shows where the satellite is in the earth's shadow,  

DLR